www.pogodaiklimat.ru

Погода и климат >> Архив погоды >> Россия >> Якутия >> Сунтар


АРХИВ ПОГОДЫ в Сунтаре

Время (UTC), дата Ветер
(напр.,м/с)
 
Видим.   Явления Облачность Т
(С)
Тd
(С)
f
(%)
Тe
(С)
Тes
(С)
Комфортность P
(гПа)
Po
(гПа)
Тmin
(С)
Tmax
(С)
R
(мм)
R24
(мм)
S
(см)
18 11.09 Ю 1 20 км 5/0
[Ac trans]
+6.9 +4.1 82 +6 +6 1005.2 988.5
21 11.09 штиль 0 50 км 3/0
[Ci fib]
+4.7 +3.7 93 +4 +4 1004.7 987.9
00 12.09 ЮВ 1 50 км 10/0
[Ac trans Ci fib]
+6.4 +4.3 86 +5 +6 1003.6 987.0 +3.8
03 12.09 штиль 0 50 км 10/0
[Ac trans Ci fib]
+12.2 +6.1 66 +12 +16 1001.7 985.4
06 12.09 штиль 0 50 км 10/0
[Ac trans]
+14.5 +7.4 62 +14 +17 999.3 983.1
09 12.09 штиль 0 50 км 10/3 600 м
[Cu med, cong Ac trans]
+15.5 +10.0 70 +15 +16 998.4 982.4
12 12.09 штиль 0 20 км 10/3 600 м
[Sc Ac und]
+10.6 +8.4 86 +10 +10 997.6 981.3 +15.9
15 12.09 Ю 1 20 км 10/6 750 м
[Sc Ac trans]
+9.2 +8.0 92 +8 +8 997.4 981.1
18 12.09 З 5
{10}
4000 м слаб. ливневой дождь 10/10 500 м
[Cb cap]
+8.0 +7.4 96 +4 +4 998.6 982.2
21 12.09 З 5
{11}
50 км {ливн. осадки} 10/10 630 м
[Cb cap]
+5.0 +3.1 88 0 0 1001.1 984.4
00 13.09 З 5
{13}
50 км {ливн. осадки} 8/8 700 м
[St]
+4.3 -0.8 69 -0 -0 1003.2 986.4 +4.3 0.7
03 13.09 З 6
{14}
50 км ясно +5.1 -5.4 47 +1 +3 1004.3 987.5
06 13.09 З 5
{12}
50 км ясно +7.0 -9.0 31 +4 +6 1004.0 987.4
09 13.09 З 5
{11}
50 км 6/0
[Ac trans]
+6.4 -9.8 30 +3 +3 1004.5 987.8
12 13.09 ЮЗ 2 20 км 8/0
[Ac trans]
+3.0 -8.4 43 +1 +1 1004.5 987.5 +7.3
15 13.09 Ю 1 20 км ясно -0.4 -7.3 60 -2 -2 1003.5 986.4
18 13.09 ЮВ 1 20 км ясно -3.0 -6.4 77 -5 -5 1002.6 985.3
21 13.09 Ю 2 50 км 3/0
[Ac trans]
-0.9 -3.1 85 -5 -5 1001.4 984.3
00 14.09 ЮЗ 4 50 км 4/0
[Ac trans Ci fib]
+0.4 -1.3 88 -5 -4 1001.5 984.5 -3.2
03 14.09 Ю 5
{10}
50 км 3/3 600 м
[St]
+4.5 -9.2 36 +1 +2 1000.3 983.5
06 14.09 Ю 5
{14}
50 км 8/6 1000 м
[Sc Ci fib]
+5.3 -10.4 31 +2 +3 999.2 982.5
09 14.09 З 3
{12}
50 км 6/6 1000 м
[Sc]
+4.9 -8.0 39 +2 +2 1000.7 983.9
12 14.09 СЗ 1 20 км 5/5 1000 м
[Sc]
+2.0 -2.3 73 +1 +1 1001.7 984.8 +7.0
15 14.09 ЮВ 1 20 км 3/3 1000 м
[Sc]
-1.9 -5.4 77 -4 -4 1002.4 985.2
18 14.09 штиль 0 20 км 4/0
[Ac trans]
-3.5 -6.3 81 -4 -4 1002.5 985.2
21 14.09 ЮВ 1 50 км 5/0
[Ac trans]
-4.3 -6.2 87 -7 -7 1002.7 985.4
00 15.09 Ю 1 50 км 3/0
[Ac trans]
-2.5 -5.1 82 -5 -3 1002.2 985.0 -4.8
03 15.09 Ю 4 50 км 10/6 1200 м
[Sc Ac trans]
+3.1 -3.7 61 -1 -1 1001.6 984.7
06 15.09 Ю 2 50 км в посл. час ливневой снег 10/10 1080 м
[Cb cap]
+2.9 -1.9 71 0 0 1001.7 984.8
09 15.09 Ю 2 50 км {ливн. осадки} 9/9 1080 м
[Sc]
+4.2 -1.9 64 +2 +2 1002.2 985.4
12 15.09 Ю 2 20 км 8/8 1200 м
[Cb cap]
+3.5 -0.3 76 +1 +1 1003.4 986.6 +4.9 0.0
15 15.09 Ю 1 20 км 3/3 1000 м
[Sc]
+0.7 -0.7 90 -1 -1 1004.2 987.2
18 15.09 Ю 2 20 км 8/8 700 м
[Cb cap]
+1.0 -0.1 92 -3 -3 1004.6 987.5
21 15.09 Ю 1 50 км 10/10 630 м
[Cb cap]
+1.4 0.0 90 -1 -1 1004.8 987.8
00 16.09 Ю 3 50 км в посл. час ливневой дождь 10/9 1200 м
[Cb cap Ac trans]
+2.3 +1.3 93 -2 -2 1005.4 988.4 -0.4 0.0
03 16.09 ЮЗ 3 50 км в посл. час ливневой дождь 6/6 600 м
[Cb cap]
+3.9 +0.8 80 0 +2 1006.7 989.8
06 16.09 Ю 2 50 км {ливн. осадки} 6/6 600 м
[Cb cap]
+6.8 -0.5 60 +5 +7 1007.2 990.5
09 16.09 ЮЗ 1 50 км {ливн. осадки} 8/5 600 м
[Cb cap Ac trans]
+6.6 -1.1 58 +6 +6 1009.1 992.4
12 16.09 З 1 20 км {ливн. осадки} 10/3 600 м
[Cb cap Ac trans Ci fib]
+3.0 +1.5 90 +1 +1 1011.5 994.5 +7.5 0.1
15 16.09 СЗ 1 20 км 10/6 600 м
[Cb cap Ac trans]
+2.0 +1.2 94 0 0 1012.7 995.6
18 16.09 СЗ 2 10 км слаб. ливневой дождь 10/10 240 м
[Cb cap]
+2.2 +1.7 96 -1 -1 1014.3 997.2
21 16.09 З 1 50 км {ливн. осадки} 10/0
[Ac trans Ci fib]
+0.4 -0.2 96 -2 -2 1016.0 998.7
00 17.09 З 1 50 км {ливн. осадки} 1/0
[Ac trans]
-1.5 -2.1 96 -4 -3 1017.4 1000.0 -1.5 2
03 17.09 ЮЗ 2 50 км ясно +4.6 +0.1 73 +2 +7 1017.8 1000.8
06 17.09 З 2 50 км 6/6 1000 м
[Cu hum]
+6.4 -3.4 49 +5 +6 1017.8 1000.9
09 17.09 З 3 50 км 6/6 1000 м
[Sc]
+7.7 -4.1 43 +6 +6 1017.5 1000.7
12 17.09 З 2 20 км 5/5 1000 м
[Sc]
+4.8 -3.2 56 +3 +3 1018.1 1001.1 +8.9
15 17.09 З 1 20 км 6/3 1000 м
[Sc Ac trans]
+3.0 -2.4 68 +2 +2 1018.4 1001.3
18 17.09 З 1 20 км 6/0
[Ac trans]
+1.3 -1.9 79 -0 -0 1018.5 1001.3
21 17.09 штиль 0 50 км ясно -2.7 -3.4 95 -4 -4 1018.9 1001.4
00 18.09 ЮЗ 1 50 км ясно -1.2 -2.8 89 -3 -2 1018.7 1001.3 -3.5
03 18.09 ЮЗ 1 50 км 1/0
[Ci fib]
+5.6 -2.2 57 +5 +10 1017.7 1000.8
06 18.09 ЮЗ 1 50 км 4/4 1000 м
[Sc]
+8.3 -6.5 34 +8 +11 1015.7 998.9
09 18.09 Ю 1 50 км 4/0
[Ac trans]
+7.2 -4.1 44 +7 +7 1013.9 997.1
12 18.09 В 1 20 км 10/5 600 м
[Cb cap Ac trans]
+3.7 -4.0 57 +3 +3 1012.7 995.7 +8.9

 

Местоположение метеостанции Сунтар (Якутия, Россия): широта 62.17 долгота 117.60 высота над уровнем моря 138 м.

В архиве по умолчанию представлена погода в Сунтаре за последнюю неделю. Архивные данные за месяц целиком и за предыдущие месяцы, начиная с января 2011 года, Вы можете получить, выбрав интересующий диапазон дат из раскрывающегося списка и нажав кнопку "Ввод!".


*Определитесь, кто Вы:
робот инопланетянин человек

Внимание! Время в таблицах - всемирное. Для получения местного времени необходимо прибавить поправку, которая равна 9 ч.

Смотрите также архив погоды в соседних городах и на ближайших метеорологических станциях:

Погода в Крестяхе (Якутия, Россия) (79 км)
Погода в Нюрбе (Якутия, Россия) (129 км)
Погода в Килиере (Якутия, Россия) (163 км)
Погода в Дорожном (Якутия, Россия) (169 км)
Погода в Верхневилюйске (Якутия, Россия) (194 км)
Погода в Мирном (Якутия, Россия) (200 км)
Погода в Ленске (Якутия, Россия) (219 км)
Погода в Чумпуруке (Якутия, Россия) (232 км)
Погода в Олекминске (Якутия, Россия) (247 км)
Погода в Маче (Якутия, Россия) (249 км)

Пояснения к столбцам:

Ветер - указаны скорость ветра в м/с - средняя за 10 мин, порывы в срок и между сроками (в фигурных скобках) и направление, откуда дует ветер: С - северный, СВ - северо-восточный, В - восточный, ЮВ - юго-восточный, Ю - южный, ЮЗ - юго-западный, З - западный, СЗ - северо-западный.
Видимость - горизонтальная дальность видимости в метрах или километрах. При видимости от 1 до 10 км при отсутствии осадков обычно наблюдается дымка, при ухудшении видимости до 1 км и менее - туман. В сухую погоду видимость может ухудшаться дымом, пылью или мглою.
Явления - указаны атмосферные явления, наблюдавшиеся в срок или в последний час перед сроком; фигурными скобками обозначены явления, наблюдавшиеся между сроками (за 1-3 часа до срока); квадратными скобками обозначены град или гололедные отложения с указанием их диаметра в мм.
Облачность - указаны через наклонную черту общая и нижняя облачность в баллах и высота нижней границы облаков в метрах; квадратными скобками обозначены формы облаков: Ci - перистые, Cs - перисто-слоистые, Cc - перисто-кучевые, Ac - высококучевые, As - высокослоистые, Sc - слоисто-кучевые, Ns - слоисто-дождевые, Cu - кучевые, Cb - кучево-дождевые. Подробнее классификацию облаков см. в Атласе облаков (PDF).
T - Температура воздуха - температура, измеренная на высоте 2 м над землей.
Td - Температура точки росы - температура, при понижении до которой содержащийся в воздухе водяной пар достигнет насыщения.
f - Относительная влажность воздуха - влажноcть воздуха, измеренная на высоте 2 м над землей.
Te - Эффективная температура - температура, которую ощущает одетый по сезону человек в тени. Характеристика душности погоды. При расчете учитывается влияние влажности воздуха и скорости ветра на теплоощущения человека.
Tes - Эффективная температура на солнце - температура, которую ощущает человек, с поправкой на солнечный нагрев. Характеристика знойности погоды. Зависит от высоты солнца над горизонтом, облачности и скорости ветра. Ночью, в пасмурную погоду, а также при ветре 12 м/с и более поправка равна нулю.
P - Атмосферное давление - приведенное к уровню моря атмосферное давление.
Po - Атмосферное давление - измеренное на уровне метеостанции атмосферное давление.
Tmin - Минимальная температура - минимум температуры воздуха на высоте 2 м над землей.
Tmax - Максимальная температура - максимум температуры воздуха на высоте 2 м над землей.
R - Количество осадков - Количество выпавших осадков за период времени, мм. При наведении курсора мыши на число - период времени, за который выпало указанное количество осадков.
R24 - Количество осадков - Количество выпавших осадков за 24 часа, мм.
S - Снежный покров - Высота снежного покрова, см. При наведении курсора мыши на число - состояние снежного покрова и степень покрытия местности в баллах.